sat.trackr.live / text

‹ back to catalog

STARLINK-4275

NORAD 53008 · 2022-076Y

PAYLOAD ACTIVE UNKNOWN

§ Identity

Operator
Country
US
Launch date
2022-07-07
Launch site
AFETR
Launch vehicle
Mass (kg)
RCS (m²)

Purposes: comms

External: N2YO · Heavens-Above · Gunter

§ Orbital elements

Epoch: 2026-05-25T03:55:30.249120Z

Period
95.44 min
Inclination
53.2136°
Eccentricity
0.0001110
Mean motion
15.08841352 rev/d
Perigee alt
539.0 km
Apogee alt
540.5 km
Semi-major
6,917.9 km
B*
4.1115e-5
RAAN
110.8078°
Arg perigee
70.8007°
Mean anomaly
289.3105°
Rev number
21,439

§ Raw data

STARLINK-42751 53008U 22076Y   26145.16354455  .00000367  00000+0  41115-4 0  99952 53008  53.2136 110.8078 0001110  70.8007 289.3105 15.08841352214392

JSON: /api/v1/satellites/53008 · /tle

For live sub-satellite position, see the globe view (requires WebGL).

§ Visibility from observer

Set your observer location to see the next 7 days of passes ≥ 10°. The values pass through the URL so the page stays shareable.

No JS? Fill the form by hand. The geolocation button needs JavaScript.